Regional Weather Roundup
Issued by NWS Little Rock, AR

Home | Current Version | Previous Version | Graphics & Text | Print | Product List | Glossary On
Versions: 1 2 3 4 5 6 7 8 9 10 11 12 13 14 15 16 17 18 19 20 21 22 23 24 25 26 27 28 29 30 31 32 33 34
000
ASUS44 KLZK 221600
RWRLZK
ARKANSAS STATE WEATHER ROUNDUP
NATIONAL WEATHER SERVICE LITTLE ROCK AR
ISSUED BY NATIONAL WEATHER SERVICE MEMPHIS TN
1100 AM CDT TUE MAY 22 2018

NOTE: "FAIR" INDICATES FEW OR NO CLOUDS BELOW 12,000 FEET WITH NO
SIGNIFICANT WEATHER AND/OR OBSTRUCTIONS TO VISIBILITY.

ARZ001-003-010-029-221700-
NORTHWEST ARKANSAS

CITY           SKY/WX    TMP DP  RH WIND       PRES   REMARKS
FORT SMITH     SUNNY     83  70  64 N3        30.05S
HARRISON       CLOUDY    77  67  71 CALM      30.09
BENTONVILLE    SUNNY     80  66  62 SW5       30.10S
ROGERS         MOSUNNY   81  66  61 SW5       30.10R
SILOAM SPGS    SUNNY     80  69  69 VRB3      30.09S
HIGHFILL       SUNNY     80  66  62 SE5       30.09S
SPRINGDALE     MOSUNNY   81  66  61 CALM      30.10S
$$

ARZ004-005-016-221700-
NORTH CENTRAL ARKANSAS

CITY           SKY/WX    TMP DP  RH WIND       PRES   REMARKS
BATESVILLE     MOSUNNY   80  71  74 SE5       30.07F
FLIPPIN        SUNNY     79  70  74 N3        30.08S
MTN HOME       PTSUNNY   79  69  71 VRB3      30.07S
$$

ARZ040-041-221700-
WEST CENTRAL ARKANSAS

CITY           SKY/WX    TMP DP  RH WIND       PRES   REMARKS
$$

ARZ017-025-026-028-221700-
NORTHEAST ARKANSAS

CITY           SKY/WX    TMP DP  RH WIND       PRES   REMARKS
JONESBORO      FAIR      82  73  74 VRB3      30.06S
NEWPORT        CLOUDY    81  72  74 E3        30.07S
BLYTHEVILLE    FAIR      81  70  69 CALM      30.06F
$$

ARZ022-033-042-044-221700-
CENTRAL ARKANSAS

CITY           SKY/WX    TMP DP  RH WIND       PRES   REMARKS
LITTLE ROCK    PTSUNNY   80  72  76 E5        30.06S
SEARCY         FAIR      82  73  74 CALM      30.06F
HOT SPRINGS    CLOUDY    78  72  81 CALM      30.07S
RUSSELLVILLE   MOSUNNY   81  71  71 SE6       30.05S
$$

ARZ036-221700-
EAST ARKANSAS

CITY           SKY/WX    TMP DP  RH WIND       PRES   REMARKS
WEST MEMPHIS   PTSUNNY   79  75  87 VRB3      30.05F FOG
$$

ARZ050-070-073-221700-
SOUTHWEST ARKANSAS

CITY           SKY/WX    TMP DP  RH WIND       PRES   REMARKS
TEXARKANA      MOSUNNY   83  70  64 CALM      30.05S
EL DORADO      FAIR      81  73  76 CALM      30.05F
DEQUEEN        PTSUNNY   82  71  69 CALM      30.03F
$$

ARZ056-057-069-221700-
SOUTHEAST ARKANSAS

CITY           SKY/WX    TMP DP  RH WIND       PRES   REMARKS
PINE BLUFF     FAIR      80  68  66 CALM      30.06F
STUTTGART      FAIR      79  71  76 N6        30.07S
MONTICELLO     FAIR      81  71  71 E6        30.06S
$$





USA.gov is the U.S. government's official web portal to all federal, state and local government web resources and services.